STARLINK-2598 (48385 NORAD) Tracking and Keplerian Element Data

This shows tracking and keplerian element data for the satellite.

Feedback or suggestion? Click here.




ElementValue
Catalog48385
NameSTARLINK-2598
Epoch Orbit1516
Epoch Day214.61096814
Epoch Year2021
RAAN333.7772
Inclination53.0543
Eccentricity0.0001199
Argument of Perigee102.2557
Mean Anonmoly257.8566
Mean Motion15.06396371
Decay Rate-1.227E-05
L11 48385U 21038AJ 21214.61096814 -.00001227 00000-0 -63525-4 0 9996
L22 48385 53.0543 333.7772 0001199 102.2557 257.8566 15.06396371 15167

Live tracking and technical data element details for STARLINK-2598 (NORAD 48385). STARLINK-2598 can be tracked NOW for your location showing map with azimuth and elevation plus other details from your city location.

Track the satellite on the map from your city or location and see movement details for azimuth, elevation, latitude, longitude, range, height, and movement on the map or in text.







IsCatalogInMostPopularTable: catalog: 48385, numindb: 29
Update: records affected: 1



GetName: 48385 STARLINK-2598

Hit Count: updated at: Tue, 03 Aug 2021 21:16:47 GMT